sat.trackr.live / text

‹ back to catalog

STARLINK-2121

NORAD 47399 · 2021-005BC

PAYLOAD ACTIVE UNKNOWN

§ Identity

Operator
Country
US
Launch date
2021-01-20
Launch site
AFETR
Launch vehicle
Mass (kg)
RCS (m²)

Purposes: comms

External: N2YO · Heavens-Above · Gunter

§ Orbital elements

Epoch: 2026-05-25T03:12:41.285952Z

Period
94.01 min
Inclination
53.1586°
Eccentricity
0.0001107
Mean motion
15.31719828 rev/d
Perigee alt
469.9 km
Apogee alt
471.4 km
Semi-major
6,848.8 km
B*
1.9290e-4
RAAN
41.1567°
Arg perigee
91.0907°
Mean anomaly
269.0221°
Rev number
29,510

§ Raw data

STARLINK-21211 47399U 21005BC  26145.13381118  .00005629  00000+0  19290-3 0  99992 47399  53.1586  41.1567 0001107  91.0907 269.0221 15.31719828295105

JSON: /api/v1/satellites/47399 · /tle

For live sub-satellite position, see the globe view (requires WebGL).

§ Visibility from observer

Set your observer location to see the next 7 days of passes ≥ 10°. The values pass through the URL so the page stays shareable.

No JS? Fill the form by hand. The geolocation button needs JavaScript.